UAE16TK LFLL-OMDB

Flight info

Callsign UAE16TK
Flight time N/A
Altitude 39000
Route RISOR8N RISOR UT47 GEMLA DCT VANAS DCT MEDAM DCT NITAM DCT MOGBO DCT GEN DCT AMTEL DCT LATAN DCT SALUN N705 MMA/N0484F410 N705 BOPIX N710 TAKRI M720 FYM W613 ALPID DCT MENLI DCT SISIK W976 DATOK L550 KARIK B411 DEESA Y415 LOTOK P559 VUTEB VUTEB3C
Aircraft A359/H-SABDE2E3GHIJ1J2J3J4J5M1P2RWXYZ/LB1D1

Departure

Time 2026-05-06 11:29
Airport Lyon Saint-Exupéry Airport (LFLL)

Arrival

Time N/A
Airport Dubai International Airport (OMDB)
Time Latitude Longitude Altitude Speed Heading
2026-05-06 10:54 45.71715 5.07964 803 ft 0 kts 311°
2026-05-06 10:57 45.71718 5.07959 803 ft 0 kts 311°
2026-05-06 10:58 45.71716 5.07962 803 ft 0 kts 311°
2026-05-06 10:58 45.71713 5.07968 803 ft 0 kts 311°
2026-05-06 11:17 45.71708 5.07976 804 ft 2 kts 311°
2026-05-06 11:17 45.71695 5.07997 804 ft 3 kts 315°
2026-05-06 11:18 45.71680 5.08017 804 ft 3 kts 320°
2026-05-06 11:18 45.71664 5.08034 804 ft 3 kts 328°
2026-05-06 11:18 45.71647 5.08048 805 ft 3 kts 341°
2026-05-06 11:18 45.71630 5.08055 806 ft 4 kts
2026-05-06 11:19 45.71619 5.08054 807 ft 10 kts 11°
2026-05-06 11:23 45.71634 5.08059 806 ft 7 kts 11°
2026-05-06 11:24 45.71699 5.08088 804 ft 0 kts 41°
2026-05-06 11:24 45.71701 5.08094 804 ft 1 kts 61°
2026-05-06 11:24 45.71700 5.08100 805 ft 1 kts 86°
2026-05-06 11:24 45.71694 5.08138 806 ft 8 kts 101°
2026-05-06 11:25 45.71675 5.08264 807 ft 18 kts 103°
2026-05-06 11:25 45.71683 5.08427 807 ft 9 kts 92°
2026-05-06 11:25 45.71623 5.08499 809 ft 16 kts 163°
2026-05-06 11:25 45.71477 5.08520 811 ft 25 kts 175°
2026-05-06 11:26 45.71290 5.08544 819 ft 30 kts 175°
2026-05-06 11:26 45.71159 5.08568 821 ft 0 kts 143°
2026-05-06 11:26 45.71157 5.08572 821 ft 2 kts 129°
2026-05-06 11:26 45.71143 5.08597 822 ft 8 kts 129°
2026-05-06 11:27 45.71106 5.08702 825 ft 16 kts 105°
2026-05-06 11:27 45.71078 5.08861 826 ft 0 kts 101°
2026-05-06 11:27 45.71077 5.08888 827 ft 7 kts 89°
2026-05-06 11:27 45.71099 5.08996 825 ft 16 kts 40°
2026-05-06 11:28 45.71213 5.09016 825 ft 1 kts 354°
2026-05-06 11:28 45.71287 5.09006 824 ft 33 kts 354°
2026-05-06 11:29 45.71747 5.08952 817 ft 98 kts 355°
2026-05-06 11:29 45.72621 5.08844 798 ft 153 kts 355°
2026-05-06 11:29 45.73800 5.08717 1139 ft 172 kts 356°
2026-05-06 11:29 45.74983 5.08606 1885 ft 170 kts 356°
2026-05-06 11:30 45.76229 5.08523 2283 ft 188 kts 356°
2026-05-06 11:30 45.77554 5.08455 2656 ft 199 kts 356°
2026-05-06 11:30 45.78979 5.08289 3006 ft 213 kts 352°
2026-05-06 11:30 45.80491 5.08016 3407 ft 224 kts 351°
2026-05-06 11:31 45.82100 5.07933 3728 ft 241 kts
2026-05-06 11:31 45.83627 5.09008 4150 ft 251 kts 46°
2026-05-06 11:31 45.84459 5.11163 4722 ft 251 kts 81°
2026-05-06 11:31 45.84295 5.13612 5293 ft 247 kts 117°
2026-05-06 11:32 45.83204 5.15426 5923 ft 241 kts 152°
2026-05-06 11:32 45.81636 5.16184 6553 ft 238 kts 170°
2026-05-06 11:32 45.80010 5.16673 7171 ft 241 kts 170°
2026-05-06 11:32 45.78379 5.17256 7829 ft 242 kts 168°
2026-05-06 11:33 45.76756 5.17921 8471 ft 243 kts 166°
2026-05-06 11:33 45.75130 5.18639 9114 ft 245 kts 166°
2026-05-06 11:33 45.73524 5.19378 9751 ft 247 kts 165°
2026-05-06 11:33 45.71919 5.20371 10324 ft 253 kts 151°
2026-05-06 11:34 45.70646 5.22136 10775 ft 266 kts 132°
2026-05-06 11:34 45.69521 5.24384 11081 ft 282 kts 129°
2026-05-06 11:34 45.68395 5.26728 11372 ft 296 kts 129°
2026-05-06 11:34 45.67197 5.29212 11675 ft 309 kts 129°
2026-05-06 11:35 45.65953 5.31788 11966 ft 322 kts 128°
2026-05-06 11:35 45.65175 5.33391 12139 ft 329 kts 129°
2026-05-06 11:35 45.65167 5.33407 12141 ft 330 kts 129°
2026-05-06 11:35 45.63828 5.36148 12422 ft 341 kts 129°
2026-05-06 11:36 45.62439 5.38982 12691 ft 353 kts 128°
2026-05-06 11:36 45.61011 5.41891 12970 ft 362 kts 129°
2026-05-06 11:36 45.59545 5.44856 13359 ft 368 kts 129°
2026-05-06 11:36 45.58060 5.47857 13813 ft 371 kts 129°
2026-05-06 11:37 45.56560 5.50883 14226 ft 374 kts 129°
2026-05-06 11:37 45.55052 5.53922 14655 ft 377 kts 129°
2026-05-06 11:37 45.53551 5.56944 15094 ft 379 kts 129°
2026-05-06 11:37 45.52092 5.60097 15522 ft 385 kts 123°
2026-05-06 11:38 45.51162 5.63723 15946 ft 397 kts 104°
2026-05-06 11:38 45.51087 5.67704 16374 ft 407 kts 88°
2026-05-06 11:38 45.51450 5.71721 16807 ft 410 kts 85°
2026-05-06 11:38 45.51863 5.75750 17245 ft 413 kts 85°
2026-05-06 11:39 45.52270 5.79822 17660 ft 416 kts 85°
2026-05-06 11:39 45.52666 5.83919 18071 ft 418 kts 85°
2026-05-06 11:39 45.53055 5.88036 18486 ft 420 kts 85°
2026-05-06 11:39 45.53443 5.92204 18857 ft 422 kts 86°
2026-05-06 11:40 45.53827 5.96367 19216 ft 425 kts 86°
2026-05-06 11:40 45.54215 6.00555 19603 ft 426 kts 86°
2026-05-06 11:40 45.54601 6.04749 19980 ft 428 kts 86°
2026-05-06 11:40 45.54986 6.08976 20359 ft 430 kts 86°
2026-05-06 11:41 45.55372 6.13225 20733 ft 432 kts 86°
2026-05-06 11:41 45.55752 6.17433 21097 ft 434 kts 86°
2026-05-06 11:41 45.56129 6.21643 21454 ft 436 kts 86°
2026-05-06 11:41 45.56512 6.25946 21792 ft 438 kts 86°
2026-05-06 11:42 45.56800 6.30266 22155 ft 437 kts 91°
2026-05-06 11:42 45.56615 6.34590 22521 ft 434 kts 103°
2026-05-06 11:42 45.55886 6.38753 22859 ft 433 kts 111°
2026-05-06 11:42 45.54905 6.42830 23206 ft 434 kts 114°
2026-05-06 11:43 45.53799 6.46842 23569 ft 435 kts 116°
2026-05-06 11:43 45.52637 6.50828 23832 ft 438 kts 116°
2026-05-06 11:43 45.51448 6.54833 24068 ft 441 kts 117°
2026-05-06 11:44 45.49063 6.62956 24547 ft 446 kts 116°
2026-05-06 11:44 45.47876 6.67065 24795 ft 449 kts 116°
2026-05-06 11:44 45.46536 6.71026 25025 ft 448 kts 124°
2026-05-06 11:44 45.44773 6.74676 25230 ft 445 kts 134°
2026-05-06 11:45 45.42592 6.77771 25444 ft 440 kts 144°
2026-05-06 11:45 45.40197 6.80482 25665 ft 439 kts 148°
2026-05-06 11:45 45.37723 6.83029 25983 ft 440 kts 150°
2026-05-06 11:45 45.35201 6.85501 26272 ft 441 kts 151°
2026-05-06 11:46 45.33516 6.87125 26439 ft 443 kts 152°
2026-05-06 11:46 45.30966 6.89586 26752 ft 445 kts 152°
2026-05-06 11:46 45.28401 6.92083 27031 ft 448 kts 151°
2026-05-06 11:46 45.25154 6.95811 27414 ft 457 kts 144°
2026-05-06 11:47 45.23570 6.97870 27604 ft 459 kts 143°
2026-05-06 11:47 45.21249 7.01000 27953 ft 463 kts 142°
2026-05-06 11:47 45.18927 7.04205 28275 ft 467 kts 142°
2026-05-06 11:47 45.16606 7.07438 28613 ft 469 kts 142°
2026-05-06 11:48 45.14269 7.10689 28926 ft 472 kts 143°
2026-05-06 11:48 45.11964 7.13915 29176 ft 477 kts 141°
2026-05-06 11:48 45.09776 7.17560 29386 ft 488 kts 134°
2026-05-06 11:48 45.07746 7.21424 29636 ft 491 kts 133°
2026-05-06 11:49 45.05758 7.25363 29907 ft 494 kts 133°
2026-05-06 11:49 45.03783 7.29352 30135 ft 497 kts 132°
2026-05-06 11:49 45.01803 7.33385 30435 ft 498 kts 132°
2026-05-06 11:49 44.99834 7.37395 30738 ft 499 kts 132°
2026-05-06 11:50 44.98003 7.41622 30997 ft 507 kts 124°
2026-05-06 11:50 44.96418 7.46097 31231 ft 511 kts 122°
2026-05-06 11:50 44.94899 7.50647 31501 ft 513 kts 121°
2026-05-06 11:50 44.93414 7.55243 31754 ft 515 kts 121°
2026-05-06 11:51 44.91937 7.59868 32005 ft 517 kts 121°
2026-05-06 11:51 44.90462 7.64486 32387 ft 516 kts 121°
2026-05-06 11:51 44.88988 7.69090 32937 ft 510 kts 121°
2026-05-06 11:51 44.87525 7.73625 33389 ft 507 kts 121°
2026-05-06 11:52 44.86058 7.78136 33750 ft 505 kts 121°
2026-05-06 11:52 44.84589 7.82625 34038 ft 504 kts 121°
2026-05-06 11:52 44.83134 7.87054 34313 ft 504 kts 121°
2026-05-06 11:52 44.81661 7.91531 34567 ft 504 kts 121°
2026-05-06 11:53 44.80181 7.96023 34819 ft 504 kts 121°
2026-05-06 11:53 44.78706 8.00496 35083 ft 504 kts 121°
2026-05-06 11:53 44.77225 8.04977 35349 ft 504 kts 121°
2026-05-06 11:53 44.75743 8.09460 35600 ft 504 kts 121°
2026-05-06 11:54 44.74263 8.13928 35841 ft 505 kts 121°
2026-05-06 11:54 44.72776 8.18409 36093 ft 505 kts 121°
2026-05-06 11:54 44.71284 8.22892 36316 ft 505 kts 121°
2026-05-06 11:54 44.69791 8.27368 36497 ft 506 kts 121°
2026-05-06 11:55 44.68297 8.31846 36724 ft 506 kts 120°
2026-05-06 11:55 44.66821 8.36269 36996 ft 506 kts 120°
2026-05-06 11:55 44.65306 8.40801 37238 ft 506 kts 120°
2026-05-06 11:55 44.63829 8.45213 37480 ft 506 kts 120°
2026-05-06 11:56 44.62327 8.49691 37737 ft 506 kts 120°
2026-05-06 11:56 44.60828 8.54153 37956 ft 506 kts 120°
2026-05-06 11:56 44.59322 8.58625 38180 ft 506 kts 120°
2026-05-06 11:56 44.57815 8.63092 38390 ft 506 kts 120°
2026-05-06 11:57 44.56308 8.67551 38592 ft 506 kts 120°
2026-05-06 11:57 44.54798 8.72007 38747 ft 506 kts 120°
2026-05-06 11:57 44.53277 8.76481 38867 ft 507 kts 120°
2026-05-06 11:57 44.51782 8.80887 38875 ft 507 kts 120°
2026-05-06 11:58 44.48743 8.89829 38877 ft 508 kts 120°
2026-05-06 11:58 44.45700 8.98750 38880 ft 507 kts 120°
2026-05-06 11:59 44.42613 9.07615 38877 ft 504 kts 124°
2026-05-06 11:59 44.38975 9.15964 38879 ft 501 kts 127°
2026-05-06 12:00 44.35218 9.24153 38884 ft 501 kts 127°
2026-05-06 12:00 44.31428 9.32325 38889 ft 500 kts 127°
2026-05-06 12:01 44.27653 9.40476 38898 ft 501 kts 127°
2026-05-06 12:01 44.23879 9.48634 38889 ft 501 kts 127°
2026-05-06 12:02 44.20127 9.56775 38905 ft 502 kts 127°
2026-05-06 12:02 44.16346 9.64957 38912 ft 502 kts 127°
2026-05-06 12:03 44.12551 9.73132 38907 ft 502 kts 127°
2026-05-06 12:03 44.08730 9.81271 38909 ft 502 kts 128°
2026-05-06 12:04 44.04899 9.89396 38901 ft 502 kts 128°
2026-05-06 12:04 44.01068 9.97529 38917 ft 502 kts 128°
2026-05-06 12:05 43.97235 10.05662 38910 ft 503 kts 128°
2026-05-06 12:05 43.93405 10.13770 38917 ft 503 kts 128°
2026-05-06 12:06 43.89582 10.21841 38931 ft 502 kts 128°
2026-05-06 12:06 43.85742 10.29922 38935 ft 502 kts 128°
2026-05-06 12:07 43.81897 10.37992 38937 ft 502 kts 128°
2026-05-06 12:07 43.78044 10.46055 38940 ft 502 kts 128°
2026-05-06 12:08 43.74187 10.54107 38938 ft 502 kts 128°
2026-05-06 12:08 43.70330 10.62134 38937 ft 501 kts 128°
2026-05-06 12:09 43.66494 10.70101 38935 ft 501 kts 128°
2026-05-06 12:09 43.62624 10.78112 38937 ft 501 kts 128°
2026-05-06 12:10 43.58753 10.86107 38929 ft 501 kts 128°
2026-05-06 12:10 43.54874 10.94090 38932 ft 501 kts 128°
2026-05-06 12:11 43.50987 11.02069 38932 ft 501 kts 128°
2026-05-06 12:11 43.47088 11.10053 38936 ft 502 kts 128°
2026-05-06 12:12 43.43191 11.18012 38939 ft 502 kts 128°
2026-05-06 12:12 43.39284 11.25973 38944 ft 502 kts 128°
2026-05-06 12:13 43.35365 11.33935 38944 ft 502 kts 128°
2026-05-06 12:13 43.31465 11.41831 38951 ft 502 kts 128°
2026-05-06 12:14 43.27540 11.49761 38949 ft 502 kts 128°
2026-05-06 12:14 43.23581 11.57737 38954 ft 502 kts 128°
2026-05-06 12:15 43.19689 11.65634 38954 ft 503 kts 127°
2026-05-06 12:15 43.15900 11.73712 38952 ft 503 kts 126°
2026-05-06 12:16 43.12144 11.81802 38963 ft 504 kts 126°
2026-05-06 12:16 43.00475 12.06462 38972 ft 504 kts 127°
2026-05-06 12:17 42.85178 12.38400 38970 ft 503 kts 127°
2026-05-06 12:17 42.69760 12.70250 38984 ft 504 kts 127°
2026-05-06 12:18 42.54196 13.02060 39012 ft 505 kts 127°
2026-05-06 12:18 42.38644 13.33515 38989 ft 507 kts 127°
2026-05-06 12:19 42.22848 13.65118 38970 ft 508 kts 127°
2026-05-06 12:19 42.15021 13.80760 38964 ft 489 kts 129°
2026-05-06 12:19 42.07390 13.95857 38966 ft 486 kts 129°
2026-05-06 12:20 41.92163 14.25596 38966 ft 487 kts 130°
2026-05-06 12:20 41.76704 14.55623 38959 ft 488 kts 130°
2026-05-06 12:21 41.61163 14.85491 38982 ft 489 kts 129°
2026-05-06 12:21 41.45530 15.15257 38998 ft 490 kts 129°
2026-05-06 12:22 41.29778 15.44954 38995 ft 491 kts 129°
2026-05-06 12:22 41.14768 15.72991 39006 ft 493 kts 129°
2026-05-06 12:23 40.98810 16.02520 39026 ft 493 kts 129°
2026-05-06 12:23 40.82799 16.31870 39012 ft 492 kts 129°
2026-05-06 12:24 40.66691 16.61116 39045 ft 492 kts 129°
2026-05-06 12:24 40.50482 16.90270 39116 ft 494 kts 129°
2026-05-06 12:25 40.34288 17.19126 39049 ft 494 kts 130°
2026-05-06 12:25 40.17858 17.48133 39055 ft 495 kts 130°
2026-05-06 12:26 40.01373 17.76973 39067 ft 495 kts 130°
2026-05-06 12:26 39.84854 18.05607 39076 ft 495 kts 130°
2026-05-06 12:27 39.68206 18.34205 39083 ft 495 kts 129°
2026-05-06 12:27 39.51500 18.62646 39094 ft 496 kts 129°
2026-05-06 12:28 39.44481 18.74520 39098 ft 497 kts 129°
2026-05-06 12:28 39.40273 18.81617 39095 ft 497 kts 130°
2026-05-06 12:29 39.36101 18.88638 39107 ft 497 kts 130°
2026-05-06 12:29 39.31870 18.95742 39102 ft 497 kts 130°
2026-05-06 12:30 39.27246 19.02325 39105 ft 494 kts 139°
2026-05-06 12:30 39.22136 19.08263 39109 ft 494 kts 141°
2026-05-06 12:31 39.14181 19.17136 39109 ft 494 kts 141°
2026-05-06 12:31 38.93426 19.40352 39116 ft 495 kts 141°
2026-05-06 12:32 38.72613 19.63490 39119 ft 495 kts 141°
2026-05-06 12:32 38.55262 19.82637 39121 ft 496 kts 141°
2026-05-06 12:33 38.34291 20.05612 39124 ft 497 kts 142°
2026-05-06 12:33 38.13239 20.28492 39128 ft 498 kts 142°
2026-05-06 12:34 37.92131 20.51254 39127 ft 499 kts 142°
2026-05-06 12:34 37.71027 20.73833 39104 ft 500 kts 142°